Weather History for OMAA - June, 2013

Change the Weather History Date:

Friday, June 28, 2013

  Actual Average Record
Temperature  
Mean Temperature 93 °F -  
Max Temperature 104 °F 106 °F 118 °F (2002)
Min Temperature 82 °F 83 °F 77 °F (2008)
Cooling Degree Days 28    
Growing Degree Days 43 (Base 50)    
Moisture  
Dew Point 65 °F    
Average Humidity 42    
Maximum Humidity 74    
Minimum Humidity 12    
Precipitation  
Precipitation 0.00 in 0.00 in - ()
Sea Level Pressure  
Sea Level Pressure 29.43 in    
Wind  
Wind Speed 8 mph ()    
Max Wind Speed 17 mph    
Max Gust Speed -    
Visibility 5.0 miles    
Events      
Averages and records for this station are not official NWS values.
T = Trace of Precipitation, MM = Missing Value Source: Averaged Metar Reports

Daily Weather History Graph

Daily Weather History Graph

Search for Another Location

Airport or City:

Trip Planner

Search our weather history database for the weather conditions in past years. The results will help you decide how hot, cold, wet, or windy it might be!

Date:

Astronomy

Jun. 28, 2013 Rise Set
Actual Time 5:35 AM GST 7:13 PM GST
Civil Twilight 5:09 AM GST 7:39 PM GST
Nautical Twilight 4:39 AM GST 8:10 PM GST
Astronomical Twilight 4:07 AM GST 8:42 PM GST
Moon 11:10 PM GST (6/28) 10:40 AM GST (6/28)
Length of Visible Light 14h 29m
Length of Day
13h 38m
Waning Gibbous, 70% of the Moon is Illuminated
Jun 28
Waning Gibbous
Jun 30
Last Quarter
Jul 8
New
Jul 16
First Quarter
Jul 22
Full

Hourly Weather History & Observations

Time (GST) Temp. Heat Index Dew Point Humidity Pressure Visibility Wind Dir Wind Speed Gust Speed Precip Events Conditions
12:00 AM 86.0 °F 96.9 °F 77.0 °F 74% 29.44 in - SSW 8.1 mph - N/A   Clear
1:00 AM 86 °F - 75 °F 62% 29.44 in 6 mi SSW 9.2 mph - -  
1:00 AM 86.0 °F 95.1 °F 75.2 °F 70% 29.42 in - SSW 9.2 mph - N/A   Clear
2:00 AM 84.2 °F 92.3 °F 75.2 °F 74% 29.42 in - South 9.2 mph - N/A   Clear
3:00 AM 84.2 °F 92.3 °F 75.2 °F 74% 29.42 in - SSE 5.8 mph - N/A   Clear
4:00 AM 84 °F - 73 °F 62% 29.42 in 6 mi SSE 6.9 mph - -  
4:00 AM 84.2 °F 90.9 °F 73.4 °F 70% 29.42 in - SSE 6.9 mph - N/A   Clear
5:00 AM 82.4 °F 86.3 °F 69.8 °F 66% 29.42 in - SE 5.8 mph - N/A   Clear
6:00 AM 82.4 °F 84.6 °F 66.2 °F 58% 29.44 in - SSE 5.8 mph - N/A   Clear
7:00 AM 84.2 °F 84.4 °F 60.8 °F 45% 29.44 in - South 9.2 mph - N/A   Clear
8:00 AM 89.6 °F 88.1 °F 57.2 °F 33% 29.44 in - South 6.9 mph - N/A   Clear
9:00 AM 93.2 °F 90.8 °F 53.6 °F 26% 29.47 in - SSW 6.9 mph - N/A   Clear
10:00 AM 100.4 °F 98.8 °F 55.4 °F 22% 29.47 in - WSW 6.9 mph - N/A   Clear
11:00 AM 104.0 °F 102.9 °F 55.4 °F 20% 29.44 in - WNW 17.3 mph - N/A   Clear
12:00 PM 102.2 °F 100.9 °F 55.4 °F 21% 29.44 in 5.0 mi WNW 16.1 mph - N/A   Unknown
1:00 PM 104 °F - 56 °F 12% 29.44 in 4 mi NW 15.0 mph - -   Widespread Dust
1:00 PM 104.0 °F 102.9 °F 55.4 °F 20% 29.44 in 4.3 mi NW 15.0 mph - N/A   Unknown
2:00 PM 104.0 °F 103.4 °F 57.2 °F 21% 29.42 in 4.3 mi NW 13.8 mph - N/A   Unknown
3:00 PM 102.2 °F 105.5 °F 64.4 °F 29% 29.42 in 4.3 mi West 17.3 mph - N/A   Unknown
4:00 PM 102.2 °F 104.2 °F 62.6 °F 27% 29.42 in 5.0 mi WNW 16.1 mph - N/A   Unknown
5:00 PM 100.4 °F 101.3 °F 60.8 °F 27% 29.42 in 5.0 mi WNW 17.3 mph - N/A   Unknown
6:00 PM 98.6 °F 102.8 °F 66.2 °F 35% 29.42 in 5.0 mi WNW 11.5 mph - N/A   Unknown
7:00 PM 96 °F - 66 °F 28% 29.43 in 6 mi WNW 8.1 mph - -  
7:00 PM 96.8 °F 100.7 °F 66.2 °F 37% 29.42 in - WNW 8.1 mph - N/A   Clear
8:00 PM 95.0 °F 98.5 °F 66.2 °F 39% 29.42 in - WNW 6.9 mph - N/A   Clear
9:00 PM 95.0 °F 98.5 °F 66.2 °F 39% 29.42 in - WNW 3.5 mph - N/A   Clear
10:00 PM 93.2 °F 97.7 °F 68.0 °F 44% 29.44 in - NNW 2.3 mph - N/A   Clear
11:00 PM 91.4 °F 93.2 °F 64.4 °F 41% 29.44 in - East 3.5 mph - N/A   Clear